Home   Weather   Breda   Past weeks
Flag for Netherlands

Past Weather in Breda, Netherlands — Yesterday and Last 2 Weeks

Now
50 °F

Sprinkles. Broken clouds.


Feels Like: 47 °F
Forecast: 59 / 46 °F
Wind: 8 mph from Southwest

Location: Gilze-Rijen

Current Time: Jun 5, 2020 at 12:55:15 pm

Latest Report: Jun 5, 2020 at 11:55 am


Visibility: N/A

Pressure: 29.30 "Hg

Humidity: 94%

Dew Point: 48 °F

Location of BredaLocation

Past Weather in Breda — Graph

°F

Breda Temperature Yesterday

Maximum temperature yesterday: 61 °F (at 12:55 am)
Minimum temperature yesterday: 50 °F (at 11:55 pm)
Average temperature yesterday: 57 °F

High & Low Weather Summary for the Past Weeks

 TemperatureHumidityPressure
High82 °F (May 21, 4:25 pm)100% (May 25, 5:25 am)30.60 "Hg (May 25, 5:25 am)
Low45 °F (May 26, 4:18 am)22% (Jun 1, 6:55 pm)29.30 "Hg (Jun 5, 10:08 am)
Average62 °F61%30.15 "Hg
* Reported May 21 11:25 am — Jun 5 11:39 am, Breda. Weather by CustomWeather, © 2020

Note: Actual official high and low records may vary slightly from our data, if they occured in-between our weather recording intervals... More about our weather records

Breda Weather History for the Previous 24 Hours

Scroll right to see more
 ConditionsComfort  
Time TempWeatherWind HumidityBarometerVisibility
11:39 am
Fri, Jun 5
48 °FSprinkles. Mostly cloudy.8 mph94%29.30 "HgN/A
11:26 am48 °FRain. Mostly cloudy.7 mph94%29.30 "HgN/A
11:17 am48 °FThundershowers. Cloudy.7 mph94%29.30 "HgN/A
10:58 am48 °FThunderstorms. Broken clouds.10 mph94%29.30 "Hg3 mi
10:27 am54 °FRain. Mostly cloudy.14 mph88%29.30 "Hg3 mi
10:25 am54 °FSprinkles. Broken clouds.16 mph88%29.30 "HgN/A
10:08 am55 °FLight rain. Broken clouds.16 mph77%29.30 "HgN/A
9:40 am55 °FBroken clouds.18 mph77%29.33 "HgN/A
9:25 am55 °FBroken clouds.15 mph77%29.33 "HgN/A
8:55 am54 °FMore clouds than sun.15 mph77%29.36 "HgN/A
8:25 am52 °FDrizzle. Partly sunny.13 mph82%29.36 "HgN/A
7:55 am50 °FMostly cloudy.10 mph88%29.39 "HgN/A
7:25 am50 °FOvercast.9 mph88%29.39 "HgN/A
7:04 am48 °FBroken clouds.8 mph94%29.39 "HgN/A
6:55 am48 °FBroken clouds.6 mph87%29.39 "HgN/A
6:44 am48 °FDrizzle. Mostly cloudy.5 mph94%29.42 "HgN/A
6:25 am48 °FMostly cloudy.6 mph94%29.42 "HgN/A
5:56 am48 °FMore clouds than sun.7 mph87%29.42 "HgN/A
5:55 am46 °FOvercast.7 mph93%29.42 "HgN/A
5:25 am46 °FMostly cloudy.6 mph87%29.45 "HgN/A
4:55 am45 °FOvercast.7 mph93%29.45 "HgN/A
4:25 am45 °FOvercast.7 mph93%29.45 "HgN/A
3:55 am45 °FQuite cool.6 mph93%29.45 "HgN/A
3:25 am45 °FOvercast.6 mph93%29.47 "HgN/A
2:55 am45 °FQuite cool.6 mph93%29.47 "HgN/A
2:25 am45 °FPassing clouds.3 mph93%29.47 "HgN/A
1:55 am46 °FCool.3 mph87%29.47 "HgN/A
1:25 am46 °FCool.3 mph87%29.47 "HgN/A
12:59 am48 °FPassing clouds.5 mph82%29.47 "HgN/A
12:25 am48 °FPassing clouds.5 mph87%29.47 "HgN/A
11:55 pm
Thu, Jun 4
50 °FPassing clouds.7 mph82%29.50 "HgN/A
11:25 pm52 °FPartly cloudy.8 mph77%29.50 "HgN/A
10:59 pm52 °FPartly cloudy.7 mph77%29.50 "HgN/A
10:25 pm52 °FMostly cloudy.9 mph82%29.47 "HgN/A
9:55 pm52 °FMostly cloudy.9 mph82%29.47 "HgN/A
9:25 pm52 °FMostly cloudy.8 mph82%29.47 "HgN/A
8:55 pm52 °FMostly cloudy.10 mph82%29.47 "HgN/A
8:25 pm52 °FMostly cloudy.10 mph88%29.47 "HgN/A
8:08 pm52 °FMostly cloudy.13 mph88%29.47 "HgN/A
7:55 pm52 °FDrizzle. Mostly cloudy.17 mph88%29.47 "Hg6 mi
7:40 pm52 °FDrizzle. Broken clouds.18 mph94%29.47 "Hg3 mi
7:36 pm52 °FDrizzle. Broken clouds.17 mph94%29.47 "HgN/A
7:14 pm55 °FCloudy.14 mph72%29.45 "HgN/A
6:59 pm55 °FBroken clouds.15 mph72%29.45 "HgN/A
6:39 pm57 °FLight rain. More clouds than sun.13 mph67%29.45 "HgN/A
6:25 pm57 °FMostly cloudy.14 mph67%29.45 "HgN/A
5:55 pm57 °FMostly cloudy.15 mph67%29.45 "HgN/A
5:25 pm59 °FBroken clouds.14 mph68%29.45 "HgN/A
4:55 pm59 °FMostly cloudy.14 mph68%29.45 "HgN/A
4:25 pm59 °FMore clouds than sun.15 mph63%29.45 "HgN/A
4:03 pm59 °FMore clouds than sun.13 mph68%29.45 "HgN/A
3:56 pm57 °FLight rain. More clouds than sun.12 mph72%29.45 "HgN/A
3:25 pm55 °FDrizzle. Partly sunny.16 mph82%29.47 "HgN/A
3:17 pm57 °FDrizzle. Broken clouds.16 mph77%29.45 "HgN/A
2:55 pm59 °FBroken clouds.18 mph72%29.45 "HgN/A
2:03 pm61 °FBroken clouds.18 mph72%29.45 "HgN/A
1:55 pm61 °FBroken clouds.15 mph72%29.45 "HgN/A
1:41 pm61 °FOvercast.14 mph72%29.45 "HgN/A
1:34 pm59 °FBroken clouds.13 mph72%29.45 "HgN/A
1:00 pm59 °FSprinkles. Broken clouds.6 mph77%29.47 "HgN/A
12:55 pm59 °FLight rain. Broken clouds.6 mph77%29.47 "HgN/A
12:25 pm57 °FMostly cloudy.5 mph88%29.47 "HgN/A
12:12 pm57 °FMostly cloudy.6 mph82%29.47 "HgN/A
Weather by CustomWeather, © 2020

See weather overview

Advertising